Holdrege, NE

5:43 AM CDT on May 30, 2017 (GMT -0500)
Brewster

Weather History for KHDE - December, 2013

Change the Weather History Date:

Sunday, December 29, 2013

  Actual Average Record
Temperature  
Mean Temperature 12 °F -  
Max Temperature 19 °F 34 °F 63 °F (2011)
Min Temperature 6 °F 14 °F -8 °F (1990)
Degree Days  
Heating Degree Days 52    
Moisture  
Dew Point 0 °F    
Average Humidity 57    
Maximum Humidity 71    
Minimum Humidity 40    
Precipitation  
Precipitation 0.00 in - - ()
Sea Level Pressure  
Sea Level Pressure 30.26 in    
Wind  
Wind Speed 16 mph (North)    
Max Wind Speed 29 mph    
Max Gust Speed 38 mph    
Visibility 10 miles    
Events      
Averages and records for this station are not official NWS values.
T = Trace of Precipitation, MM = Missing Value Source: NWS Daily Summary

Daily Weather History Graph

Daily Weather History Graph

Search for Another Location

Airport or City:

Trip Planner

Search our weather history database for the weather conditions in past years. The results will help you decide how hot, cold, wet, or windy it might be!

Date:

Astronomy

Dec. 29, 2013 Rise Set
Actual Time 8:00 AM CST 5:19 PM CST
Civil Twilight 7:29 AM CST 5:49 PM CST
Nautical Twilight 6:55 AM CST 6:24 PM CST
Astronomical Twilight 6:21 AM CST 6:57 PM CST
Moon 4:45 AM CST (12/29) 2:58 PM CST (12/29)
Length of Visible Light 10h 20m
Length of Day
9h 19m
Waning Crescent, 11% of the Moon is Illuminated
Dec 29
Waning Crescent
Jan 1
New
Jan 7
First Quarter
Jan 15
Full
Jan 23
Last Quarter

Hourly Weather History & Observations

Time (CST) Temp. Windchill Dew Point Humidity Pressure Visibility Wind Dir Wind Speed Gust Speed Precip Events Conditions
12:15 AM 14.7 °F -3.4 °F 4.6 °F 64% 30.20 in 10.0 mi North 21.9 mph 32.2 mph N/A   Overcast
12:35 AM 14.5 °F -3.2 °F 4.1 °F 63% 30.21 in 10.0 mi North 20.7 mph 31.1 mph N/A   Overcast
12:55 AM 14.5 °F -3.2 °F 4.1 °F 63% 30.21 in 10.0 mi North 20.7 mph 35.7 mph N/A   Overcast
1:15 AM 14.4 °F -3.8 °F 4.1 °F 64% 30.21 in 10.0 mi North 21.9 mph 28.8 mph N/A   Overcast
1:35 AM 14.2 °F -4.9 °F 3.6 °F 63% 30.22 in 10.0 mi North 24.2 mph 35.7 mph N/A   Overcast
1:55 AM 14.0 °F -5.1 °F 3.2 °F 62% 30.22 in 10.0 mi North 24.2 mph 34.5 mph N/A   Overcast
2:15 AM 14.0 °F -5.5 °F 2.8 °F 61% 30.24 in 10.0 mi North 25.3 mph 38.0 mph N/A   Scattered Clouds
2:35 AM 13.8 °F -5.3 °F 2.3 °F 60% 30.25 in 10.0 mi North 24.2 mph 34.5 mph N/A   Mostly Cloudy
2:55 AM 13.8 °F -3.7 °F 2.3 °F 60% 30.26 in 10.0 mi North 19.6 mph 32.2 mph N/A   Overcast
3:15 AM 12.6 °F -5.8 °F 1.6 °F 62% 30.27 in 10.0 mi North 20.7 mph 29.9 mph N/A   Scattered Clouds
3:35 AM 11.7 °F -9.7 °F 0.1 °F 60% 30.28 in 10.0 mi North 28.8 mph 36.8 mph N/A   Scattered Clouds
3:55 AM 11.1 °F -9.3 °F -0.2 °F 60% 30.28 in 10.0 mi NNW 25.3 mph 31.1 mph N/A   Scattered Clouds
4:15 AM 10.4 °F -9.5 °F -0.4 °F 62% 30.28 in 10.0 mi North 23.0 mph 29.9 mph N/A   Clear
4:35 AM 10.4 °F -6.6 °F -0.0 °F 63% 30.28 in 10.0 mi North 16.1 mph 25.3 mph N/A   Clear
4:55 AM 10.2 °F -8.9 °F -0.4 °F 62% 30.29 in 10.0 mi North 20.7 mph 28.8 mph N/A   Clear
5:15 AM 9.7 °F -9.6 °F -0.0 °F 65% 30.29 in 10.0 mi NNW 20.7 mph 26.5 mph N/A   Clear
5:35 AM 9.3 °F -9.1 °F -0.4 °F 65% 30.30 in 10.0 mi North 18.4 mph 26.5 mph N/A   Clear
5:55 AM 8.8 °F -9.8 °F -0.8 °F 65% 30.31 in 10.0 mi North 18.4 mph 27.6 mph N/A   Clear
6:15 AM 8.2 °F -11.0 °F -1.5 °F 65% 30.32 in 10.0 mi North 19.6 mph 29.9 mph N/A   Clear
6:35 AM 7.5 °F -8.4 °F -1.3 °F 67% 30.33 in 10.0 mi NNW 12.7 mph 25.3 mph N/A   Clear
6:55 AM 6.8 °F -9.3 °F -1.3 °F 69% 30.34 in 10.0 mi NNW 12.7 mph 18.4 mph N/A   Clear
7:15 AM 6.4 °F -11.7 °F -1.8 °F 69% 30.34 in 10.0 mi North 16.1 mph 24.2 mph N/A   Clear
7:35 AM 6.3 °F -10.7 °F -2.0 °F 69% 30.35 in 10.0 mi North 13.8 mph 21.9 mph N/A   Clear
7:55 AM 6.3 °F -10.7 °F -1.7 °F 70% 30.35 in 10.0 mi North 13.8 mph - N/A   Clear
8:15 AM 6.3 °F -10.0 °F -1.5 °F 71% 30.35 in 10.0 mi North 12.7 mph 20.7 mph N/A   Clear
8:35 AM 6.4 °F -9.0 °F -1.5 °F 70% 30.35 in 10.0 mi North 11.5 mph 19.6 mph N/A   Clear
8:55 AM 7.0 °F -10.4 °F -1.3 °F 69% 30.36 in 10.0 mi North 15.0 mph 20.7 mph N/A   Clear
9:15 AM 7.2 °F -10.2 °F -1.3 °F 68% 30.36 in 10.0 mi NNW 15.0 mph 19.6 mph N/A   Clear
9:35 AM 7.5 °F -9.1 °F -0.9 °F 68% 30.37 in 10.0 mi NNW 13.8 mph 17.3 mph N/A   Clear
9:55 AM 8.6 °F -8.3 °F -0.8 °F 66% 30.37 in 10.0 mi NNW 15.0 mph 20.7 mph N/A   Clear
10:15 AM 9.9 °F -6.7 °F -1.1 °F 61% 30.37 in 10.0 mi North 15.0 mph 20.7 mph N/A   Clear
10:35 AM 10.4 °F -4.8 °F -1.5 °F 59% 30.37 in 10.0 mi North 12.7 mph 20.7 mph N/A   Clear
10:55 AM 11.3 °F -2.9 °F -1.7 °F 56% 30.37 in 10.0 mi NNW 11.5 mph 17.3 mph N/A   Clear
11:15 AM 12.2 °F -1.0 °F -1.5 °F 54% 30.37 in 10.0 mi North 10.4 mph - N/A   Clear
11:35 AM 13.1 °F -0.7 °F -1.5 °F 52% 30.36 in 10.0 mi North 11.5 mph - N/A   Clear
11:55 AM 14.0 °F -0.8 °F -1.7 °F 50% 30.35 in 10.0 mi North 13.8 mph 19.6 mph N/A   Clear
12:15 PM 14.9 °F -0.3 °F -1.5 °F 48% 30.34 in 10.0 mi North 15.0 mph 18.4 mph N/A   Clear
12:35 PM 16.2 °F 5.5 °F -1.3 °F 46% 30.32 in 10.0 mi NNW 8.1 mph - N/A   Clear
12:55 PM 16.5 °F 3.6 °F -1.5 °F 45% 30.30 in 10.0 mi NNW 11.5 mph - N/A   Clear
1:15 PM 17.1 °F 6.6 °F -2.0 °F 43% 30.30 in 10.0 mi NNW 8.1 mph - N/A   Clear
1:35 PM 17.6 °F 5.7 °F -1.8 °F 42% 30.30 in 10.0 mi North 10.4 mph - N/A   Clear
1:55 PM 18.1 °F 7.1 °F -1.7 °F 42% 30.29 in 10.0 mi North 9.2 mph - N/A   Clear
2:15 PM 18.9 °F 8.0 °F -1.3 °F 41% 30.29 in 10.0 mi NNW 9.2 mph - N/A   Clear
2:35 PM 19.6 °F 9.7 °F -0.9 °F 41% 30.29 in 10.0 mi NNW 8.1 mph - N/A   Clear
2:55 PM 19.2 °F 10.2 °F -1.1 °F 41% 30.27 in 10.0 mi WNW 6.9 mph - N/A   Clear
3:15 PM 19.8 °F 11.9 °F -0.9 °F 40% 30.27 in 10.0 mi NNW 5.8 mph - N/A   Clear
3:35 PM 19.8 °F 14.7 °F -0.9 °F 40% 30.27 in 10.0 mi NNW 3.5 mph - N/A   Clear
3:55 PM 19.8 °F - -0.9 °F 40% 30.26 in 10.0 mi Calm Calm - N/A   Clear
4:15 PM 19.6 °F - -0.9 °F 41% 30.25 in 10.0 mi Calm Calm - N/A   Clear
4:35 PM 19.8 °F - -0.9 °F 40% 30.24 in 10.0 mi Calm Calm - N/A   Clear
4:55 PM 19.2 °F - -0.9 °F 41% 30.23 in 10.0 mi Calm Calm - N/A   Clear
5:15 PM 18.0 °F 12.7 °F -1.3 °F 43% 30.23 in 10.0 mi SE 3.5 mph - N/A   Clear
5:35 PM 15.4 °F 9.8 °F -1.5 °F 47% 30.22 in 10.0 mi SE 3.5 mph - N/A   Clear
5:55 PM 12.4 °F 4.6 °F -2.0 °F 53% 30.22 in 10.0 mi SE 4.6 mph - N/A   Clear
6:15 PM 12.7 °F 2.4 °F -1.5 °F 53% 30.22 in 10.0 mi SE 6.9 mph - N/A   Clear
6:35 PM 12.6 °F 3.4 °F -1.7 °F 53% 30.21 in 10.0 mi SSE 5.8 mph - N/A   Clear
6:55 PM 12.9 °F 3.8 °F -1.1 °F 54% 30.21 in 10.0 mi SSE 5.8 mph - N/A   Clear
7:15 PM 12.2 °F 1.7 °F -1.3 °F 55% 30.20 in 10.0 mi SSE 6.9 mph - N/A   Clear
7:35 PM 12.0 °F 0.5 °F -0.6 °F 57% 30.18 in 10.0 mi South 8.1 mph - N/A   Clear
7:55 PM 12.6 °F 2.2 °F -0.0 °F 57% 30.17 in 10.0 mi SSE 6.9 mph - N/A   Clear
8:15 PM 12.7 °F 2.4 °F 0.1 °F 57% 30.17 in 10.0 mi South 6.9 mph - N/A   Clear
8:35 PM 12.0 °F 0.5 °F 0.1 °F 59% 30.16 in 10.0 mi SSE 8.1 mph - N/A   Clear
8:55 PM 12.7 °F 1.4 °F 0.5 °F 58% 30.15 in 10.0 mi South 8.1 mph - N/A   Clear
9:15 PM 11.3 °F -0.4 °F 0.1 °F 61% 30.14 in 10.0 mi SSE 8.1 mph - N/A   Clear
9:35 PM 11.3 °F 1.9 °F 0.3 °F 61% 30.14 in 10.0 mi South 5.8 mph - N/A   Clear
9:55 PM 10.8 °F -1.1 °F 0.3 °F 63% 30.14 in 10.0 mi South 8.1 mph - N/A   Clear
10:15 PM 10.4 °F -2.4 °F 0.3 °F 64% 30.13 in 10.0 mi South 9.2 mph - N/A   Clear
10:35 PM 11.1 °F -2.4 °F 0.3 °F 62% 30.12 in 10.0 mi South 10.4 mph - N/A   Clear
10:55 PM 11.3 °F -1.3 °F 0.5 °F 62% 30.12 in 10.0 mi South 9.2 mph - N/A   Clear
11:15 PM 12.0 °F -2.7 °F 0.9 °F 61% 30.12 in 10.0 mi South 12.7 mph - N/A   Clear
11:35 PM 12.2 °F -1.0 °F 0.5 °F 60% 30.12 in 10.0 mi South 10.4 mph - N/A   Clear
11:55 PM 12.2 °F -1.8 °F 0.5 °F 60% 30.10 in 10.0 mi South 11.5 mph - N/A   Clear